LiveATC.Net - Listen to live air traffic control over the Internet! Contact LiveATC.net for advertising information


ICAO: SAEZ  IATA: EZE   Airport: Ministro Pistarini International Airport
City: Buenos Aires
Country: Argentina   Continent: South America
SAEZ METAR Weather: SAEZ 231500Z 34009KT 300V010 CAVOK 26/13 Q1011
SAEZ Flight Activity (FlightAware)
SAEZ Tower
Feed Status: DOWN
Last heard on: 2014-11-23 13:52:03 (0 days 1 hours 54 minutes ago)
SAEZ Tower Audio Archives
FacilityFrequency
Ezeiza Tower118.600


NOTICE

Unauthorized use prohibited. See LiveATC.net Terms of Service


Find LiveATC Audio Streams


Airport/ARTCC Code

Frequency
(e.g., 124.400, 128.75)
Site-wide search

Browse LiveATC Feeds
LiveATC Coverage Map
Top 50 LiveATC Feeds
Bad Weather Areas

LiveATC FAQ
Offer a LiveATC Feed
Contact LiveATC.net
Press Inquiries

LiveATC on iPhone
LiveATC on Android

LiveATC Mobile
(Mobile browser)

ATC Audio Archives
Interesting Recordings

LiveATC Forums


Home Page
About LiveATC.net
Make a Donation
LiveATC Bookstore

Terms of Use
Privacy Policy

ATC/Radar Sites
U.S. ARTCC Freqs
Canadian Air Freqs

AIRMETs/SIGMETs

FAA Airport Status
Nat'l Airspace Status
Arrival Demand Charts


Server Software By:
Icecast.org
Liquidsoap

Please make a donation to help us keep growing!